Location: Boschkau
(49.9284°N, 14.7059°E)
Time: 10:13:43
(UTC+00:00)

Daily predictions for brighter satellites

Satellite Brightness Start Highest point End
(mag) Time Altitude Azimuth Time Altitude Azimuth Time Altitude Azimuth
Cosmos 1452 Rocket 3.5 19:42:29 10° SSW 19:47:44 79° ESE 19:53:01 10° NNE
MetOp-B 4.2 19:44:01 10° SSE 19:49:23 90° E 19:54:47 10° NNW
Cosmos 1110 Rocket 4.2 19:46:11 10° S 19:51:19 57° ESE 19:56:32 10° NNE
X-37B 2.1 19:49:37 10° WSW 19:51:43 19° SSW 19:53:51 10° SSE
Cosmos 2154 Rocket 4.2 19:46:25 10° N 19:52:36 60° ENE 19:58:42 10° SSE
Cosmos 2228 3.0 19:53:17 10° N 19:57:32 70° ENE 20:01:45 10° SSE
Cosmos 968 Rocket 3.9 19:56:05 10° NNW 20:01:11 52° ENE 20:06:17 10° SE
Cosmos 1697 Rocket 2.8 19:56:18 10° NNW 20:01:56 79° WSW 20:07:32 10° SSE
Cosmos 1980 Rocket 2.5 19:56:54 10° NNW 20:02:35 61° ENE 20:08:10 10° SE
SL-16 R/B 3.8 20:00:04 10° NNW 20:04:43 25° NE 20:09:21 10° E
Cosmos 2369 3.8 20:05:07 10° NNW 20:10:54 76° ENE 20:16:35 10° SE
ATLAS 5 CENTAUR R/B 2.9 20:09:35 10° SSE 20:11:45 15° ESE 20:14:02 10° ENE
Cosmos 2058 Rocket 4.1 20:08:09 10° N 20:12:10 32° ENE 20:16:04 11° SE
CZ-2C R/B 4.3 20:11:48 10° NNE 20:16:04 38° E 20:20:15 10° SSE
Cosmos 2344 4.3 20:07:36 10° NW 20:16:21 89° SW 20:28:17 11° SE
Meteor 2-1 Rocket 4.2 20:10:54 10° N 20:16:27 80° ENE 20:22:01 10° SSE
Cosmos 1408 3.8 20:14:47 11° SE 20:17:18 23° E 20:20:04 10° NE
Resurs 01 Rocket 3.4 20:13:35 10° SSW 20:17:29 30° W 20:21:25 10° NNW
COSMOS 2406 3.3 20:15:47 10° S 20:21:26 60° ESE 20:27:07 10° NE
SJ 16-02 3.6 20:19:36 10° NNE 20:22:14 15° NE 20:24:51 10° E
Cosmos 2184 Rocket 4.4 20:17:18 10° NNW 20:23:25 66° W 20:29:34 10° S
H-2A R/B 3.8 20:20:55 10° N 20:25:00 36° WNW 20:29:05 10° SW
Cosmos 1833 Rocket 2.9 20:21:29 10° SSW 20:27:06 80° WNW 20:32:46 10° NNE
Cosmos 1867 3.6 20:24:17 10° NW 20:29:47 86° SW 20:34:38 13° SE
Cosmos 1703 4.2 20:29:58 10° SSW 20:33:42 47° WNW 20:37:27 10° N
Cosmos 1825 3.8 20:33:23 13° SE 20:35:25 19° E 20:38:09 10° NE
Cosmos 1606 Rocket 3.7 20:31:11 10° NNW 20:35:31 74° W 20:39:49 10° S
USA 245 4.2 20:32:51 10° S 20:36:26 37° W 20:39:22 10° NNW
Cosmos 2322 Rocket 3.6 20:34:03 10° NNW 20:39:02 30° NE 20:44:00 10° ESE
CZ-4B R/B 3.9 20:42:37 10° NNW 20:44:43 18° WNW 20:46:48 10° WSW
USA 234 4.0 20:39:23 10° E 20:45:44 54° NNE 20:52:05 10° WNW
GP-B 3.7 20:41:40 10° NNE 20:45:53 40° E 20:49:01 16° SSE
ARIANE 5 R/B 2.6 20:44:14 15° SSE 20:47:56 81° ENE 20:52:22 10° NNW
Terra 1.9 20:44:04 13° S 20:48:23 77° WSW 20:53:11 10° NNW
SPOT 5 3.3 20:47:01 10° S 20:51:13 48° W 20:55:26 10° NNW
Cosmos 2278 3.8 20:47:05 10° NNW 20:52:51 83° ENE 20:57:25 17° SSE
Cosmos 2341 Rocket 4.0 20:47:36 10° N 20:53:58 79° E 20:59:17 15° SSE
USA 276 1.9 20:51:47 10° W 20:54:49 67° SSW 20:56:54 18° ESE
FALCON 9 DEB 3.1 20:52:47 10° WNW 20:56:00 61° SSW 20:58:00 21° SE
Cosmos 1726 Rocket 4.0 20:53:09 10° NNW 20:57:24 57° W 21:01:15 12° S
Cosmos 2333 Rocket 4.2 20:54:57 10° NNW 20:59:22 22° NE 21:03:47 10° E
Cosmos 1992 Rocket 4.3 20:57:38 14° S 21:01:56 47° ESE 21:06:58 10° NNE
Meteor 1-11 4.2 20:58:41 10° S 21:04:16 80° E 21:09:52 10° NNE
Cosmos 2082 Rocket 2.2 20:59:31 10° SSW 21:05:15 89° ESE 21:10:59 10° NNE
Cosmos 1486 Rocket 4.0 21:00:42 10° NNW 21:05:57 78° ENE 21:09:45 19° SSE
Cosmos 1633 4.1 21:05:14 17° ESE 21:06:26 20° E 21:09:03 10° NE
Okean 1-7 Rocket 4.0 21:03:33 19° SSE 21:06:28 46° E 21:10:47 10° NNE
ASTEX 1 3.5 21:02:58 10° N 21:07:57 64° E 21:11:40 18° S
Helios 1A Rocket 4.3 21:04:56 10° SSW 21:08:39 34° W 21:12:25 10° NNW
SAR-Lupe-1 4.4 21:07:01 10° NNE 21:10:30 46° E 21:12:24 23° SSE
TIMED 4.5 21:07:30 10° SSW 21:11:52 89° ESE 21:16:16 10° NNE
ADEOS Rocket 4.5 21:06:17 11° ESE 21:12:45 39° ENE 21:19:45 10° N
Cosmos 2360 Rocket 3.4 21:08:30 10° NNW 21:13:40 34° NE 21:18:47 10° ESE
Cosmos-2242 4.1 21:12:04 10° N 21:15:56 32° ENE 21:18:22 18° SE
Cosmos 1812 Rocket 4.3 21:12:08 10° N 21:16:23 41° ENE 21:19:01 20° SE
Cosmos 1606 4.4 21:14:15 10° NNE 21:17:24 23° ENE 21:19:29 15° ESE
Cosmos 1932 4.4 21:12:57 10° SSW 21:19:08 76° SE 21:25:30 10° NE
Cosmos 2181 Rocket 4.0 21:17:08 16° S 21:22:14 76° E 21:28:31 10° NNE
Cosmos 1821 Rocket 4.5 21:16:29 10° N 21:22:30 48° ENE 21:26:44 19° SE
ERS-1 Rocket 4.4 21:22:19 10° SSW 21:26:46 31° W 21:31:13 10° NNW
Cosmos 1892 3.1 21:26:26 15° SSW 21:29:26 59° WNW 21:33:12 10° N
Cosmos 1602 Rocket 4.0 21:28:28 24° SSE 21:30:40 46° E 21:34:50 10° NNE
Cosmos 1354 Rocket 4.1 21:30:30 10° NNW 21:35:49 71° ENE 21:39:12 23° SE
Cosmos 2237 4.5 21:30:45 10° NNW 21:36:29 65° ENE 21:40:30 20° SE
Cosmos 1503 Rocket 4.0 21:39:04 10° NNW 21:44:24 85° WSW 21:47:32 25° SSE
Spot 4 4.0 21:42:42 24° SSE 21:45:31 65° ENE 21:50:17 10° N
Cosmos 1980 Rocket 3.7 21:41:32 10° NW 21:46:10 26° WSW 21:50:07 13° SSW
ALOS 2 3.4 21:44:13 21° SE 21:46:41 41° ENE 21:50:50 10° N
Nadezhda 3 Rocket 4.4 21:43:20 22° SSE 21:47:02 49° E 21:52:56 10° NNE
ERS-2 4.3 21:46:32 10° ENE 21:48:01 12° E 21:48:35 12° E
Cosmos 2219 Rocket 3.7 21:44:25 10° NNW 21:49:25 31° NE 21:54:25 10° ESE
SL-16 R/B 2.2 21:43:48 10° NNW 21:49:30 80° WSW 21:52:57 25° SSE
Cosmos 1777 Rocket 4.3 21:44:20 10° NNW 21:49:36 62° ENE 21:52:54 23° SE
Cosmos 1408 4.4 21:48:57 10° SW 21:51:53 25° WNW 21:54:50 10° NNW
Cosmos 1626 Rocket 3.7 21:50:06 21° SSW 21:52:55 72° WNW 21:57:18 10° N
USA 267 3.5 21:46:37 10° ENE 21:52:56 48° SE 21:59:13 10° SSW
H-2A R/B 4.4 21:51:06 10° NNE 21:54:57 34° E 21:56:24 26° SE
Cosmos 2058 3.9 21:53:50 25° SE 21:55:23 34° E 21:59:10 10° NNE
ATLAS 5 CENTAUR R/B 1.5 21:51:48 10° SW 21:55:33 70° NW 21:59:52 10° NE
SJ 16-02 1.3 21:57:00 10° NNW 22:01:28 89° WSW 22:03:35 31° SSE
SL-4 R/B 2.1 22:04:44 38° SE 22:04:44 38° SE 22:08:00 10° E
Cosmos 1825 Rocket 4.0 22:04:05 30° SSE 22:05:49 47° E 22:10:00 10° NNE
Meteor 2-20 4.4 22:03:59 23° S 22:07:56 82° E 22:14:03 10° NNE
Cosmos 1825 3.4 22:07:59 16° SW 22:10:31 36° WNW 22:14:01 10° N
Cosmos 2221 3.7 22:09:15 10° N 22:13:13 33° ENE 22:15:26 21° ESE
Cosmos 2322 Rocket 2.4 22:17:53 10° NW 22:23:30 62° WSW 22:26:28 28° S
Terra 4.4 22:25:47 10° W 22:26:57 11° W 22:28:08 10° WNW
USA 234 3.2 22:22:04 11° ESE 22:28:32 86° SSW 22:35:09 10° WNW
USA 276 4.3 22:27:55 10° W 22:28:42 14° WSW 22:28:42 14° WSW
Cosmos 1934 Rocket 4.0 22:25:04 10° N 22:31:11 77° E 22:34:46 27° SSE
Meteor 2-20 Rocket 4.4 22:33:21 25° SSW 22:37:06 85° W 22:43:14 10° N
BREEZE-M DEB (TANK) 4.0 22:34:22 10° W 22:38:01 69° SSW 22:53:19 10° ESE
Cosmos 1633 4.0 22:39:00 19° WSW 22:40:45 29° WNW 22:43:50 10° N
Cosmos 2333 Rocket 2.3 22:38:44 10° NNW 22:44:33 83° ENE 22:48:06 25° SSE
Cosmos 1758 Rocket 4.4 22:42:24 21° SW 22:44:56 43° WNW 22:49:10 10° N
Cosmos 1933 4.4 22:43:36 10° N 22:47:20 37° ENE 22:49:07 24° ESE
USA 290 3.8 22:44:30 10° N 22:47:24 29° ENE 22:48:53 20° ESE
Cosmos 2082 Rocket 4.5 22:45:38 10° W 22:50:07 23° NW 22:54:36 10° NNE
Cosmos 1812 4.4 22:49:19 10° NNE 22:52:35 26° ENE 22:54:29 18° ESE
COSMOS 2487 3.1 22:52:53 32° ESE 22:52:53 32° ESE 22:55:41 10° NE
Cosmos 1606 3.9 22:49:34 10° NNW 22:53:03 33° W 22:54:21 26° SW
Cosmos-2242 4.4 22:49:44 10° NNW 22:53:21 27° W 22:55:10 20° SW
Cosmos 990 Rocket 4.2 22:49:12 10° NNW 22:54:20 65° ENE 22:57:27 24° SE
ADEOS Rocket 3.8 22:53:14 25° S 22:57:50 61° W 23:05:34 10° NNW
Cosmos 2360 Rocket 2.5 22:52:25 10° NW 22:57:55 52° WSW 23:00:32 29° S
Cosmos 1339 Rocket 4.4 22:54:49 28° S 22:58:18 82° E 23:04:27 10° N
ISS -2.8 23:00:48 32° ESE 23:00:48 32° ESE 23:03:11 10° E
Cosmos 1340 Rocket 2.9 22:58:42 36° SSW 23:00:10 70° WNW 23:04:10 10° N
Gbstr 26 Del rocket 3.1 22:59:00 18° SW 23:02:08 69° SSE 23:07:22 10° ENE
Meteor 2-3 Rocket 4.1 23:04:49 28° SSE 23:07:37 54° E 23:13:03 10° NNE
Cosmos 2333 4.3 23:01:51 10° NNW 23:07:37 69° WSW 23:10:38 29° S
Cosmos 1076 Rocket 3.9 23:09:43 32° SSE 23:11:23 52° E 23:15:38 10° NNE
Cosmos 540 Rocket 4.5 23:10:08 24° SE 23:12:13 33° ESE 23:16:47 10° NE
BREEZE-M DEB (TANK) 2.8 23:12:24 44° S 23:12:47 47° SSE 23:18:31 10° ENE
SL-27 R/B 2.2 23:13:18 56° SSE 23:13:49 69° ESE 23:17:05 10° NNE
SL-16 R/B 4.5 23:10:38 10° ESE 23:15:29 24° NE 23:20:20 10° N
NOSS 3-2 (A) 4.0 23:13:40 27° SSE 23:15:49 37° ESE 23:21:30 10° NE
Cosmos 44 3.1 23:14:09 26° SW 23:16:44 82° NW 23:21:12 10° NE
Cosmos 1833 4.2 23:14:26 24° SW 23:17:54 80° WNW 23:23:33 10° NNE
Cosmos 1782 2.9 23:16:50 10° N 23:20:49 67° E 23:22:20 35° SSE
ERS-2 2.3 23:18:11 10° N 23:21:45 61° WNW 23:22:56 37° SW
ALOS 2 4.1 23:21:36 20° SW 23:23:11 25° W 23:26:48 10° NW
Lacrosse 4 Rocket 4.3 23:21:58 10° N 23:24:15 14° NNE 23:26:33 10° ENE
Cosmos 2237 Rocket 3.4 23:19:07 10° NNW 23:24:27 40° NE 23:29:44 10° ESE
Cosmos 1605 Rocket 4.1 23:18:25 10° NNW 23:24:49 72° W 23:28:27 27° S
CENTAUR R/B 3.1 23:22:31 27° SSE 23:25:12 41° ESE 23:31:39 10° NE
COSMOS 2428 2.7 23:25:12 10° NNW 23:30:57 87° WSW 23:34:37 23° SSE
Cosmos 2297 Rocket 3.9 23:29:19 15° SE 23:32:06 21° E 23:36:11 10° NE
SL-16 R/B 4.2 23:29:47 10° WNW 23:32:40 14° W 23:34:48 12° WSW
Cosmos 2151 3.1 23:31:03 35° SSE 23:32:45 67° E 23:37:02 10° NNE
Cosmos 2219 Rocket 2.3 23:28:10 10° NW 23:33:46 61° WSW 23:36:40 28° S
USA 267 3.5 23:29:39 10° ENE 23:36:11 74° NNW 23:42:42 10° WSW
SJ 16-02 3.7 23:37:56 10° WNW 23:39:15 11° W 23:40:32 10° WSW
ATLAS 5 CENTAUR R/B 4.2 23:37:49 10° WNW 23:40:55 20° NNW 23:44:25 10° NNE
SL-19 R/B 4.5 23:40:04 32° SSE 23:41:58 84° ENE 23:46:33 10° NNW
Cosmos 2322 3.9 23:37:21 10° NW 23:42:54 56° WSW 23:45:44 28° S
SL-4 R/B 1.8 23:40:21 10° W 23:43:53 76° NNW 23:47:41 10° ENE
Cosmos 1898 Rocket 3.4 23:39:00 10° NNW 23:44:12 77° WSW 23:47:02 27° SSE
Cosmos 1151 Rocket 4.2 23:41:13 10° N 23:45:19 37° ENE 23:48:25 16° SE
Cosmos 1937 Rocket 3.5 23:44:07 10° NNW 23:49:25 88° ENE 23:52:46 23° SSE
Cosmos 2221 3.8 23:46:55 10° NNW 23:50:40 28° W 23:52:14 22° SW
COSMOS 2455 3.2 23:45:55 10° NNW 23:51:57 67° NE 23:57:56 10° SE
PSLV R/B 4.4 23:48:27 10° N 23:53:02 49° WNW 23:55:36 24° SW
Cosmos 1184 Rocket 3.3 23:53:48 10° N 23:56:46 48° ENE 23:57:49 32° SE
